Location: Fort Wayne
(41.1310°N, 85.1290°W)
Time: 10:37:02
(UTC-04:00)

Iridium 37 - Visible Passes

Search period start: 25 April 2018 00:00
Search period end: 05 May 2018 00:00
Orbit: 210 x 483 km, 86.4° (Epoch: 24 April)

Date Brightness Start Highest point End Pass type
(mag) Time Alt. Az. Time Alt. Az. Time Alt. Az.
29 Apr 7.3 23:27:36 11° NNW 23:27:36 11° NNW 23:27:41 10° N visible
01 May 6.6 22:33:27 11° NNE 22:33:27 11° NNE 22:33:33 10° NNE visible
02 May 6.3 22:50:32 16° N 22:50:32 16° N 22:51:08 10° N visible
03 May 6.6 23:06:39 17° NNW 23:06:39 17° NNW 23:07:22 10° NNW visible
04 May 7.2 23:21:49 11° NW 23:21:49 11° NW 23:22:06 10° NW visible
